Saint Francis, KS

6:39 PM CST on January 21, 2017 (GMT -0600)
St. Francis

Weather History for KSYF - September, 2013

Change the Weather History Date:

Sunday, September 8, 2013

  Actual Average Record
Temperature  
Mean Temperature 82 °F -  
Max Temperature 99 °F 86 °F 99 °F (2013)
Min Temperature 64 °F 54 °F 55 °F (2014)
Cooling Degree Days 16    
Growing Degree Days 32 (Base 50)    
Moisture  
Dew Point 39 °F    
Average Humidity 25    
Maximum Humidity 55    
Minimum Humidity 7    
Precipitation  
Precipitation 0.00 in - - ()
Sea Level Pressure  
Sea Level Pressure 29.93 in    
Wind  
Wind Speed 14 mph (SSW)    
Max Wind Speed 23 mph    
Max Gust Speed 31 mph    
Visibility 10 miles    
Events      
Averages and records for this station are not official NWS values.
T = Trace of Precipitation, MM = Missing Value Source: NWS Daily Summary

Daily Weather History Graph

Daily Weather History Graph

Search for Another Location

Airport or City:

Trip Planner

Search our weather history database for the weather conditions in past years. The results will help you decide how hot, cold, wet, or windy it might be!

Date:

Astronomy

Sep. 08, 2013 Rise Set
Actual Time 7:22 AM CDT 8:06 PM CDT
Civil Twilight 6:54 AM CDT 8:34 PM CDT
Nautical Twilight 6:22 AM CDT 9:06 PM CDT
Astronomical Twilight 5:48 AM CDT 9:39 PM CDT
Moon 10:41 AM CDT (9/8) 9:44 PM CDT (9/8)
Length of Visible Light 13h 39m
Length of Day
12h 44m
Waxing Crescent, 11% of the Moon is Illuminated
Sep 8
Waxing Crescent
Sep 12
First Quarter
Sep 19
Full
Sep 26
Last Quarter
Oct 4
New

Hourly Weather History & Observations

Time (CDT) Temp. Dew Point Humidity Pressure Visibility Wind Dir Wind Speed Gust Speed Precip Events Conditions
12:15 AM 78.1 °F 42.1 °F 28% 29.99 in 10.0 mi South 16.1 mph 21.9 mph N/A   Clear
12:35 AM 77.4 °F 42.4 °F 29% 29.99 in 10.0 mi South 16.1 mph - N/A   Clear
12:55 AM 76.8 °F 42.8 °F 30% 29.99 in 10.0 mi South 17.3 mph - N/A   Clear
1:15 AM 76.3 °F 43.3 °F 31% 29.99 in 10.0 mi South 15.0 mph - N/A   Clear
1:35 AM 76.6 °F 43.7 °F 31% 30.00 in 10.0 mi South 17.3 mph - N/A   Clear
1:55 AM 76.1 °F 43.9 °F 32% 30.00 in 10.0 mi South 15.0 mph - N/A   Clear
2:15 AM 76.1 °F 43.7 °F 31% 30.00 in 10.0 mi SSW 16.1 mph - N/A   Clear
2:35 AM 76.6 °F 43.7 °F 31% 29.99 in 10.0 mi SSW 15.0 mph - N/A   Clear
2:55 AM 76.5 °F 44.1 °F 31% 29.99 in 10.0 mi SSW 12.7 mph - N/A   Clear
3:15 AM 75.4 °F 44.8 °F 34% 29.99 in 10.0 mi SW 9.2 mph - N/A   Clear
3:35 AM 71.8 °F 45.7 °F 39% 29.99 in 10.0 mi WSW 6.9 mph - N/A   Clear
3:55 AM 73.4 °F 45.9 °F 37% 29.99 in 10.0 mi SW 11.5 mph - N/A   Clear
4:15 AM 73.9 °F 46.0 °F 37% 29.98 in 10.0 mi SW 10.4 mph - N/A   Clear
4:35 AM 72.9 °F 46.6 °F 39% 29.98 in 10.0 mi SW 9.2 mph - N/A   Clear
4:55 AM 70.3 °F 46.9 °F 43% 29.99 in 10.0 mi West 6.9 mph - N/A   Clear
5:15 AM 70.7 °F 47.3 °F 43% 29.98 in 10.0 mi WSW 10.4 mph - N/A   Clear
5:35 AM 70.0 °F 47.3 °F 44% 29.98 in 10.0 mi WSW 8.1 mph - N/A   Clear
5:55 AM 67.8 °F 47.7 °F 48% 29.99 in 10.0 mi WSW 8.1 mph - N/A   Clear
6:15 AM 66.9 °F 47.7 °F 50% 29.98 in 10.0 mi WSW 4.6 mph - N/A   Clear
6:35 AM 68.0 °F 47.8 °F 48% 29.99 in 10.0 mi WSW 5.8 mph - N/A   Clear
6:55 AM 66.6 °F 48.0 °F 51% 29.99 in 10.0 mi SW 5.8 mph - N/A   Clear
7:15 AM 64.9 °F 48.2 °F 55% 29.99 in 10.0 mi SW 6.9 mph - N/A   Clear
7:35 AM 65.3 °F 48.2 °F 54% 29.99 in 10.0 mi SW 5.8 mph - N/A   Clear
7:55 AM 66.7 °F 48.2 °F 51% 29.99 in 10.0 mi SSW 6.9 mph - N/A   Clear
8:15 AM 70.0 °F 48.0 °F 46% 29.99 in 10.0 mi SW 5.8 mph - N/A   Clear
8:35 AM 72.9 °F 47.3 °F 40% 29.99 in 10.0 mi SW 8.1 mph - N/A   Clear
8:55 AM 74.1 °F 46.9 °F 38% 29.99 in 10.0 mi WSW 6.9 mph - N/A   Clear
9:15 AM 76.1 °F 46.6 °F 35% 29.98 in 10.0 mi SW 5.8 mph - N/A   Clear
9:35 AM 79.5 °F 45.3 °F 30% 29.99 in 10.0 mi WSW 4.6 mph - N/A   Clear
9:55 AM 81.7 °F 45.3 °F 28% 29.98 in 10.0 mi Calm Calm - N/A   Clear
10:15 AM 85.3 °F 45.1 °F 25% 29.98 in 10.0 mi WNW 3.5 mph - N/A   Clear
10:35 AM 89.4 °F 43.2 °F 20% 29.98 in 10.0 mi SW 9.2 mph - N/A   Clear
10:55 AM 93.6 °F 38.3 °F 14% 29.97 in 10.0 mi SSW 13.8 mph 19.6 mph N/A   Clear
11:15 AM 94.6 °F 37.0 °F 13% 29.96 in 10.0 mi South 17.3 mph 25.3 mph N/A   Clear
11:35 AM 95.2 °F 34.3 °F 12% 29.96 in 10.0 mi SSW 17.3 mph 25.3 mph N/A   Clear
11:55 AM 96.1 °F 32.4 °F 11% 29.96 in 10.0 mi South 21.9 mph 26.5 mph N/A   Clear
12:15 PM 96.4 °F 31.3 °F 10% 29.95 in 10.0 mi South 20.7 mph 26.5 mph N/A   Clear
12:35 PM 96.3 °F 28.2 °F 9% 29.95 in 10.0 mi South 18.4 mph 24.2 mph N/A   Clear
12:55 PM 97.7 °F 28.9 °F 9% 29.94 in 10.0 mi SSW 16.1 mph 24.2 mph N/A   Clear
1:15 PM 97.5 °F 29.5 °F 9% 29.93 in 10.0 mi South 18.4 mph 31.1 mph N/A   Clear
1:35 PM 97.5 °F 27.7 °F 8% 29.93 in 10.0 mi SSW 17.3 mph 28.8 mph N/A   Clear
1:55 PM 98.8 °F 28.9 °F 9% 29.92 in 10.0 mi South 17.3 mph 26.5 mph N/A   Clear
2:15 PM 98.8 °F 27.9 °F 8% 29.92 in 10.0 mi South 19.6 mph 26.5 mph N/A   Clear
2:35 PM 98.6 °F 27.5 °F 8% 29.91 in 10.0 mi South 19.6 mph 26.5 mph N/A   Clear
2:55 PM 98.6 °F 26.1 °F 8% 29.90 in 10.0 mi South 16.1 mph 29.9 mph N/A   Clear
3:15 PM 99.3 °F 25.9 °F 7% 29.89 in 10.0 mi South 17.3 mph 29.9 mph N/A   Clear
3:35 PM 99.3 °F 25.3 °F 7% 29.89 in 10.0 mi South 13.8 mph 27.6 mph N/A   Clear
3:55 PM 99.5 °F 25.9 °F 7% 29.88 in 10.0 mi South 20.7 mph 27.6 mph N/A   Clear
4:15 PM 98.8 °F 26.6 °F 8% 29.88 in 10.0 mi South 17.3 mph 25.3 mph N/A   Clear
4:35 PM 98.8 °F 26.1 °F 8% 29.87 in 10.0 mi South 18.4 mph 26.5 mph N/A   Clear
4:55 PM 97.9 °F 27.7 °F 8% 29.86 in 10.0 mi South 18.4 mph 27.6 mph N/A   Clear
5:15 PM 98.1 °F 27.0 °F 8% 29.85 in 10.0 mi South 23.0 mph 28.8 mph N/A   Clear
5:35 PM 97.5 °F 28.8 °F 9% 29.85 in 10.0 mi South 15.0 mph 26.5 mph N/A   Clear
5:55 PM 97.2 °F 27.3 °F 8% 29.84 in 10.0 mi South 20.7 mph - N/A   Clear
6:15 PM 96.1 °F 28.6 °F 9% 29.84 in 10.0 mi South 19.6 mph 27.6 mph N/A   Clear
6:35 PM 95.2 °F 30.2 °F 10% 29.84 in 10.0 mi South 21.9 mph 27.6 mph N/A   Clear
6:55 PM 94.5 °F 32.0 °F 11% 29.84 in 10.0 mi South 16.1 mph 24.2 mph N/A   Clear
7:15 PM 93.2 °F 33.1 °F 12% 29.84 in 10.0 mi South 15.0 mph 23.0 mph N/A   Clear
7:35 PM 91.6 °F 33.4 °F 13% 29.84 in 10.0 mi South 12.7 mph - N/A   Clear
7:55 PM 88.7 °F 36.0 °F 15% 29.84 in 10.0 mi South 12.7 mph 18.4 mph N/A   Clear
8:15 PM 86.7 °F 37.6 °F 18% 29.84 in 10.0 mi SSE 13.8 mph - N/A   Clear
8:35 PM 83.5 °F 39.7 °F 21% 29.85 in 10.0 mi SSE 12.7 mph - N/A   Clear
8:55 PM 83.5 °F 40.6 °F 22% 29.85 in 10.0 mi SSE 12.7 mph - N/A   Clear
9:15 PM 82.8 °F 41.4 °F 23% 29.86 in 10.0 mi SSE 13.8 mph - N/A   Clear
9:35 PM 82.4 °F 41.9 °F 24% 29.86 in 10.0 mi SSE 16.1 mph - N/A   Clear
9:55 PM 81.5 °F 42.3 °F 25% 29.86 in 10.0 mi SSE 15.0 mph - N/A   Clear
10:15 PM 80.6 °F 42.3 °F 26% 29.86 in 10.0 mi SSE 16.1 mph - N/A   Clear
10:35 PM 80.2 °F 42.6 °F 26% 29.86 in 10.0 mi SSE 16.1 mph 21.9 mph N/A   Clear
10:55 PM 79.9 °F 43.0 °F 27% 29.86 in 10.0 mi SSE 19.6 mph - N/A   Clear
11:15 PM 80.2 °F 43.0 °F 27% 29.86 in 10.0 mi South 19.6 mph - N/A   Clear
11:35 PM 81.0 °F 43.2 °F 26% 29.86 in 10.0 mi South 19.6 mph - N/A   Clear
11:55 PM 79.9 °F 43.7 °F 28% 29.87 in 10.0 mi South 19.6 mph 24.2 mph N/A   Clear